{"data":{"norad_id":57947,"epoch":"2026-09-19T07:42:07.577856Z","epoch_age_seconds":239492,"freshness":"STALE","line1":"1 57947U 23148N   26262.32092104  .00006240  00000+0  19583-3 0  9999","line2":"2 57947  53.1628 200.9491 0001826 106.2920 253.8284 15.34371735168120","mean_motion":15.34371735,"eccentricity":0.0001826,"inclination_deg":53.1628,"raan_deg":200.9491,"arg_perigee_deg":106.292,"mean_anomaly_deg":253.8284,"bstar":0.00019583,"rev_number":16812,"period_min":93.849486871576,"perigee_km":461.53809826507,"apogee_km":464.03640380155,"semimajor_km":6840.9242510333,"source":"CELESTRAK","updated_at":"2026-09-21T09:00:33.746657Z"}}